Starlink 4711

operational
NORAD ID: 53701 Int'l Des: 2022-107 Owner: SPXS Country: US Constellation: starlink
LEOCIRCULAR

关于 Starlink 4711

正在加载描述...

实时位置

正在加载3D地球...

即将过境

高度历史

Altitude vs Time

uPlot chart will show altitude changes over time

两行轨道根数

1 53701U 22107B 26035.26478424 .00004531 00000-0 30258-3 0 9995
2 53701 53.2184 33.7587 0001505 94.4131 265.7033 15.08840902189817
Epoch: Feb 4, 2026 • Age: 17 hours

当前状态

高度 541.1 km
速度 7.59 km/s
星下点 -2.39°S, 103.88°W
发射日期 Sep 5, 2022
运行时间 3.4 years
类型 internet

技术详情

分类 Payload
质量 305.00 kg
干质量 290.00 kg
总质量 305.00 kg
长度 0.20 m
直径 2.80 m
跨度 9.00 m
形状 Box + pan
制造商 SPXS
平台类型 Starlink
阶段状态 In Orbit
所有者/国家 SPXS/US

大型星座

Loading constellations...